Advertisement

Jackpot

Texas Poker Multi Jackpot System

Kini Telah hadir Jackpot SUPER ROYAL FLUSH

Kini Telah hadir Jackpot 2000 (khusus table VIP keatas).

Ikutilah global jackpot yang tersedia di system kami, dengan system jackpot terbaru dan pertama di indonesia, anda dapat membeli jackpot dengan harga 100 rupiah saja dan menangkan hadiahnya hingga puluhan juta rupiah.

Jackpot bukanlah suatu keharusan untuk dibeli, namun kami memberikan suatu fitur tambahan untuk member tercinta dari www.beincashpoker.com.

Terdapat tiga pilihan harga jackpot yang bisa anda beli yaitu :100,500,1000 dan 2000(khusus table VIP Keatas) rupiah.

Hadiah dari Multi jackpot system www.beincashpoker.com

  1. full house x 10 harga jackpot yang anda beli.
      (contoh:anda membeli 1000 maka:1000 X10 = 10.000)
  2. four of kind x 250 harga jackpot yang anda beli
      (contoh:anda membeli 1000 maka:1000 X250 = 250.000)
  3. Straight flush x 1200
      (contoh:anda membeli 1000 maka:1000 X1200 = 1.200.000)
  4. Royal flush x 10000 harga jackpot yang anda beli
      (contoh:anda membeli 1000 maka:1000 X10000 = 10.000.000)
  5. SUPER ROYAL FLUSH x 30000 harga jackpot yang anda beli
      (contoh:anda membeli 1000 maka:1000 X30000 = 30.000.000)

Kondisi kartu

  1. full house adalah kondisi kartu dimana kartu anda dan kartu tengah dengan total 7 kartu bisa mendapatkan nilai 5 kartu dengan kombinasi 1 tris(three of kind) dan 1 pair, contoh 3 kartu 10 dan 2 kartu 5
  2. Four of kind adalah kondisi kartu dimana kartu anda dan kartu tengah dengan total 7 kartu bisa mendapatkan nilai 5 kartu dengan kombinasi 4 kartu yang sama jumlah dan 1 kartu apapun juga contoh anda mendapatkan 4 buah kartu angka 3 dan 1 kartu apapun.
  3. Staright flush adalah kondisi kartu dimana kartu anda dan kartu tengah dengan total 7 kartu bisa mendapatkan nilai 5 kartu dengan kombinasi seri / staright dengan kembang yang sama contoh : urutan kartu dari angka 5, 6, 7, 8 , 9 10 dengan kembang yg sama misalnya as hati
  4. Royal flush adalah kondisi kartu dimana kartu anda dan kartu tengah dengan total 7 kartu bisa mendapatkan nilai 5 kartu dengan kombinasi seri / staright dengan kembang yang sama tetapi kartu tersebut haruslah dimulai dari 10. contoh 10, Queen, Jack, King dan aces dengan kembang yang sama
  5. Super Royal flush adalah kondisi kartu dimana Kedua kartu anda digabung dengan 3 kartu pertama meja haruslah royal flush. contoh kartu anda 10,Queen kembang sama dan 3 kartu pertama meja adalah Jack, King dan aces dengan kembang yang sama

Demikian adalah penjelasan dari Multi Jackpot www.beincashpoker.com terima kasih dan selamat bermain salam hoki dari kami

Texas Poker Jackpot Winner

TOP SUPER ROYAL FLUSH
No.TanggalNamaPriceWin
125/03 06:06LARONXSuper Royal flush15,000,000
225/03 03:19LP663HAOJUSuper Royal flush15,000,000
325/03 02:35EPZUKGE89ISuper Royal flush30,000,000
425/03 02:01ALESANDRA2Super Royal flush3,000,000
524/03 17:42Y4VOG6YD1SSuper Royal flush30,000,000
TOP ROYAL FLUSH
No.TanggalNamaPriceWin
125/03 10:43AUDRI18Royal flush5,000,000
225/03 10:18NGR3OKRoyal flush5,000,000
325/03 09:36EWEKCEWERoyal flush10,000,000
425/03 09:05FH5TNN20IYRoyal flush1,000,000
525/03 07:59NAGAPODTRoyal flush10,000,000
TOP STRAIGHT FLUSH
No.TanggalNamaPriceWin
125/03 10:36SMITH777Straight Flush600,000
225/03 10:26BOANK69Straight Flush120,000
325/03 10:25MINTAK_99Straight Flush600,000
425/03 10:21SIMAZStraight Flush120,000
525/03 10:20TIOM14Straight Flush600,000
LATEST JACKPOT
No.TanggalNamaPriceWin
125/03 10:45PRANT09Full House10,000
225/03 10:45UNGKEEEFull House20,000
325/03 10:45PAGARRIK11Full House1,000
425/03 10:45MUSHEN12Full House1,000
525/03 10:45JOKERMEN88Four Of A Kind125,000
625/03 10:44R1B0UNFull House5,000
725/03 10:44KUHAKUSEANFull House1,000
825/03 10:44HOKY71Full House10,000
925/03 10:44MYHEROOFull House10,000
1025/03 10:44BOYO_1234Full House1,000
1125/03 10:44BAPAMANA_Full House5,000
1225/03 10:44ASBEN999Full House1,000
1325/03 10:44TURTLES899Four Of A Kind125,000
1425/03 10:44C2RRIOK9IIFull House10,000
1525/03 10:44DOGIDOGIFull House1,000
1625/03 10:44MEEE23Full House5,000
1725/03 10:44BELGIE90Full House5,000
1825/03 10:44FZ14Full House10,000
1925/03 10:44SERLIANTIFull House5,000
2025/03 10:44CUENG22Full House5,000
2125/03 10:44MUSANG122Full House1,000
2225/03 10:44JX4WK47WVYFull House20,000
2325/03 10:44G3PTEMKODMFull House20,000
2425/03 10:44DD014Four Of A Kind125,000
2525/03 10:44PRISCA123Four Of A Kind500,000
2625/03 10:44TEMPUR1234Full House1,000
2725/03 10:44DZAKI168Full House5,000
2825/03 10:44LMCB7UNAZIFull House1,000
2925/03 10:44NOAH888Full House10,000
3025/03 10:44MAIZULFull House1,000
3125/03 10:44MAMANGKU22Full House1,000
3225/03 10:44ONCAN99Full House10,000
3325/03 10:44A46AEE66Full House10,000
3425/03 10:44PRETOFull House1,000
3525/03 10:44MIRAKURU20Full House5,000
3625/03 10:44OLIN100Full House5,000
3725/03 10:43C0B9B24CFull House5,000
3825/03 10:43MEDUZAFull House1,000
3925/03 10:43RIYATIOKFull House5,000
4025/03 10:43BOBOBOYYFull House5,000
4125/03 10:43XYNWX2D5JKFull House1,000
4225/03 10:43JAAS11Full House20,000
4325/03 10:43LISA261Full House1,000
4425/03 10:43TMRRCSUQYKFull House5,000
4525/03 10:43SUBRIELFull House1,000
4625/03 10:43ANDIS02Full House5,000
4725/03 10:43M4SBEN88Full House1,000
4825/03 10:43WEDHE88Full House1,000
4925/03 10:43JADULCOYFull House1,000
5025/03 10:43RISLOVEFull House5,000

Domino Multi Jackpot System

Ikutilah global jackpot yang tersedia di system kami, dengan system jackpot terbaru dan pertama di indonesia, anda dapat membeli jackpot dengan harga 100 rupiah saja dan menangkan hadiahnya hingga puluhan juta rupiah.

Jackpot bukanlah suatu keharusan untuk dibeli, namun kami memberikan suatu fitur tambahan untuk member tercinta dari www.beincashpoker.com.

Terdapat tiga pilihan harga jackpot yang bisa anda beli yaitu :100,500 dan 1000 rupiah.

Hadiah dari Multi jackpot system www.beincashpoker.com

  1. Murni Kecil x 50 harga jackpot yang anda beli.
      (contoh:anda membeli 1000 maka:1000 X 50 = 50.000)
  2. Murni Besar x 50 harga jackpot yang anda beli
      (contoh:anda membeli 1000 maka:1000 X 50 = 50.000)
  3. BALAK x 100 harga jackpot yang anda beli
      (contoh:anda membeli 1000 maka:1000 X 100 = 100.000)
  4. ENAM DEWA x 6666 harga jackpot yang anda beli
      (contoh:anda membeli 1000 maka:1000 X 6666 = 6.666.000)

Demikian adalah penjelasan dari Multi Jackpot www.beincashpoker.com terima kasih dan selamat bermain salam hoki dari kami

Domino Jackpot Winner

TOP ENAM DEWA
No.TanggalNamaPriceWin
125/03 08:40MAID34murni enam3,333,000
225/03 01:43CHIKAL46murni enam6,666,000
325/03 00:57SMALINGmurni enam666,600
425/03 00:46DJMAOKKKmurni enam666,600
524/03 23:19I5Y8AENV8Hmurni enam6,666,000
TOP BALAK
No.TanggalNamaPriceWin
125/03 10:41LEE227balak100,000
225/03 10:39M2H2RANIbalak100,000
325/03 10:38AMRTI12balak10,000
425/03 10:36ZOZ212balak10,000
525/03 10:36EKO7678balak100,000
LATEST JACKPOT
No.TanggalNamaPriceWin
125/03 10:44SAFIR08murni kecil5,000
225/03 10:43HYMWURUK07murni besar50,000
325/03 10:43GEW87murni kecil25,000
425/03 10:42EGREK90murni kecil25,000
525/03 10:42COQO9B5FXXmurni besar50,000
625/03 10:42WILLYYULIEmurni besar5,000
725/03 10:41ERUL_86murni kecil25,000
825/03 10:41LEE227balak100,000
925/03 10:39M2H2RANIbalak100,000
1025/03 10:39CISA111murni kecil5,000
1125/03 10:38AMRTI12balak10,000
1225/03 10:37HERJAWmurni kecil25,000
1325/03 10:36ZOZ212balak10,000
1425/03 10:36EKO7678balak100,000
1525/03 10:34KENTUNG212murni kecil50,000
1625/03 10:34OMGUNSmurni kecil50,000
1725/03 10:32KIA898murni kecil50,000
1825/03 10:31ROHMIN12murni kecil5,000
1925/03 10:31GUDIERmurni besar5,000
2025/03 10:30WELLY778murni kecil25,000
2125/03 10:2954M5ULmurni kecil5,000
2225/03 10:28NAGA63murni kecil50,000
2325/03 10:28AN4COND499murni kecil5,000
2425/03 10:27JANGGUIK1murni besar50,000
2525/03 10:26NOVANVANOmurni besar50,000
2625/03 10:25CTX92murni besar5,000
2725/03 10:25KIHROJONEmurni besar50,000
2825/03 10:23JOBOOOOLmurni besar25,000
2925/03 10:23EPEN088murni kecil50,000
3025/03 10:23ERNA1290murni kecil25,000
3125/03 10:20KUMIS444murni kecil25,000
3225/03 10:18SIIP17murni besar25,000
3325/03 10:17NJAYA88murni besar25,000
3425/03 10:16SILUPbalak100,000
3525/03 10:16LANJOOTTmurni besar25,000
3625/03 10:16IYUS8murni kecil5,000
3725/03 10:13DB303balak100,000
3825/03 10:12AMIR1234murni kecil50,000
3925/03 10:11CIGALONTANmurni besar50,000
4025/03 10:11KUMIS444murni kecil25,000
4125/03 10:10EVPSMP7HI9murni kecil5,000
4225/03 10:10YED12KLOBOmurni besar50,000
4325/03 10:10HERNOmurni besar5,000
4425/03 10:09AGOBER899murni kecil25,000
4525/03 10:08D25B8D3Emurni kecil5,000
4625/03 10:08VHY86murni besar50,000
4725/03 10:07LECKEmurni besar5,000
4825/03 10:07KENEDUITMUmurni kecil5,000
4925/03 10:07AGOBER899murni kecil25,000
5025/03 10:06CAHAYA1212murni besar25,000

Ceme Multi Jackpot System

Jackpot dilihat dari gabungan kartu pemain dengan kartu bandar. Bandar harus membeli jackpot sebanyak jumlah player yang sedang duduk. Sebagai contoh bila terdapat 3 pemain duduk bermain, dan bandar memutuskan untuk membeli jackpot Rp 1.000, maka pada periode tersebut bandar akan membeli jackpot sebanyak 3xRp1.000 = Rp3.000.

Jackpot bukanlah suatu keharusan untuk dibeli, namun kami memberikan suatu fitur tambahan untuk member tercinta dari www.beincashpoker.com.

Terdapat tiga pilihan harga jackpot yang bisa anda beli yaitu :100,500 dan 1000 rupiah.

Hadiah dari Multi jackpot system www.beincashpoker.com

  1. Murni Kecil x 50 harga jackpot yang anda beli.
      (contoh:anda membeli 1000 maka:1000 X 50 = 50.000)
  2. Murni Besar x 50 harga jackpot yang anda beli
      (contoh:anda membeli 1000 maka:1000 X 50 = 50.000)
  3. BALAK x 200 harga jackpot yang anda beli
      (contoh:anda membeli 1000 maka:1000 X 200 = 200.000)
  4. ENAM DEWA x 6666 harga jackpot yang anda beli
      (contoh:anda membeli 1000 maka:1000 X 6666 = 6.666.000)

Demikian adalah penjelasan dari Multi Jackpot www.beincashpoker.com terima kasih dan selamat bermain salam hoki dari kami

Ceme Jackpot Winner

TOP ENAM DEWA
No.TanggalNamaPriceWin
125/03 10:42RAEN27murni enam3,333,000
225/03 10:26TEDKWK96murni enam6,666,000
325/03 10:26DJAMPOTTmurni enam666,600
425/03 10:112045murni enam6,666,000
525/03 10:11OXALISmurni enam6,666,000
TOP BALAK
No.TanggalNamaPriceWin
125/03 10:45T120300548balak200,000
225/03 10:44SUNDE999balak100,000
325/03 10:41SAMYWON09balak100,000
425/03 10:39AGH2balak200,000
525/03 10:38JAAY309balak200,000
LATEST JACKPOT
No.TanggalNamaPriceWin
125/03 10:45T120300548balak200,000
225/03 10:44SAMYWON09murni besar25,000
325/03 10:44P1ST0LS12murni besar25,000
425/03 10:44BRSmurni besar50,000
525/03 10:44ZAMRUT01murni kecil50,000
625/03 10:44SUNDE999balak100,000
725/03 10:44BW_HKmurni kecil5,000
825/03 10:44Z21NIRRQAXmurni kecil25,000
925/03 10:44KTSKYXLYCKmurni kecil50,000
1025/03 10:44BUSET1234murni kecil50,000
1125/03 10:43MONO28murni kecil5,000
1225/03 10:42MARTIN17murni besar5,000
1325/03 10:42NTONG555murni besar50,000
1425/03 10:42RAEN27murni enam3,333,000
1525/03 10:42KEPOODAAHmurni kecil50,000
1625/03 10:42BW_HKmurni kecil5,000
1725/03 10:42LABUCINUmurni kecil50,000
1825/03 10:42BEJO1207murni kecil50,000
1925/03 10:41SAMYWON09balak100,000
2025/03 10:41SPEKUL4SIKmurni besar50,000
2125/03 10:41SUNDE999murni besar25,000
2225/03 10:41WAKYENG007murni besar50,000
2325/03 10:41GARENG1904murni kecil50,000
2425/03 10:41HOKIY1919murni kecil25,000
2525/03 10:41BEJO1207murni kecil50,000
2625/03 10:41YENIAMELI8murni kecil5,000
2725/03 10:41NATImurni besar5,000
2825/03 10:41MONIICA99murni kecil50,000
2925/03 10:41ANGGABEHAmurni kecil25,000
3025/03 10:41KREMBEL888murni kecil5,000
3125/03 10:41NICKHOTHOMmurni kecil5,000
3225/03 10:41GEYOLEEmurni kecil25,000
3325/03 10:41HAQIKAT07murni besar50,000
3425/03 10:40MONIICA99murni kecil25,000
3525/03 10:40GUUDELLmurni kecil25,000
3625/03 10:40NATASY4murni besar50,000
3725/03 10:40AAMCILIKmurni kecil50,000
3825/03 10:40E65LWRNBUSmurni kecil5,000
3925/03 10:39AGH2balak200,000
4025/03 10:39KELINCI24murni besar25,000
4125/03 10:38GH0Nmurni besar25,000
4225/03 10:38JAAY309balak200,000
4325/03 10:38SITIBOTI88balak200,000
4425/03 10:37BENSAP01murni kecil50,000
4525/03 10:37MISTER86murni kecil50,000
4625/03 10:37T8V3GCOMKNmurni kecil50,000
4725/03 10:37ROTTENS99murni kecil5,000
4825/03 10:37RAJENDRA78murni kecil25,000
4925/03 10:37B1MM012murni kecil25,000
5025/03 10:36KELLYNKWOKmurni kecil50,000